Location: Lecco
(45.8566°N, 9.3977°E)
Time: 23:16:50
(UTC+01:00)

Envisat - Pass Details

Date: 27 October 2019
Orbit: 764 x 766 km, 98.1° (Epoch: 18 November)

Event Time Altitude Azimuth Distance (km) Brightness Sun altitude
Rises 19:09:10 0° 191° (S) 3,219 6.3 -20.1°
Reaches altitude 10° 19:11:41 10° 201° (SSW) 2,297 5.7 -20.5°
Maximum altitude 19:16:13 32° 265° (W) 1,288 4.8 -21.3°
Drops below altitude 10° 19:20:46 10° 328° (NNW) 2,312 5.9 -22.1°
Sets 19:23:19 0° 338° (NNW) 3,243 6.6 -22.6°
